Regional Weather Roundup
Issued by NWS

Home | Current Version | Previous Version | Graphics & Text | Print | Product List | Glossary On
Versions: 1 2 3 4 5 6 7 8 9 10 11 12 13 14 15 16 17 18 19 20 21 22 23 24 25 26 27 28 29 30 31 32 33 34 35 36 37 38 39 40 41 42 43 44 45 46 47 48 49 50
000
ASUS43 KFSD 301002
RWRSD

WEATHER ROUNDUP FOR SOUTH DAKOTA
NATIONAL WEATHER SERVICE SIOUX FALLS SD
500 AM CDT WED JUL 30 2014

NOTE: "FAIR" INDICATES FEW OR NO CLOUDS BELOW 12,000 FEET WITH NO
SIGNIFICANT WEATHER AND/OR OBSTRUCTIONS TO VISIBILITY.


SDZ001>005-009-010-012>017-301100-
NORTHWEST AND NORTH CENTRAL SOUTH DAKOTA

CITY           SKY/WX    TMP DP  RH WIND       PRES   REMARKS
FAITH            N/A     61  52  72 SE9       30.16S
MOBRIDGE       CLOUDY    60  55  83 SE6       30.13F
$$

SDZ012>016-024>037-041>051-057-063-072>074-301100-
SOUTHWEST AND SOUTH CENTRAL SOUTH DAKOTA

CITY           SKY/WX    TMP DP  RH WIND       PRES   REMARKS
RAPID CTY ARPT CLEAR     51  49  92 CALM      30.20S
PIERRE         LGT RAIN  62  60  93 CALM      30.14F
CUSTER         PTCLDY    52  49  89 NW6       30.32S
ELLSWORTH AFB  CLEAR     57  53  84 NW6       30.19S
PHILIP         CLEAR     52  48  86 VRB6      30.17R
PINE RIDGE     PTCLDY    47  46  97 CALM      30.23S
WINNER         FAIR      60  49  66 SW5       30.16S
$$

SDZ004>011-016>023-039-040-301100-
NORTHEAST SOUTH DAKOTA

CITY           SKY/WX    TMP DP  RH WIND       PRES   REMARKS
ABERDEEN       PTCLDY    48  48 100 W3        30.15S
WATERTOWN      CLEAR     53  50  89 CALM      30.15S
SISSETON         N/A     52  52 100 N3        30.13R
$$

SDZ017-020-022-023-036>040-048>070-301100-
SOUTHEAST SOUTH DAKOTA

CITY           SKY/WX    TMP DP  RH WIND       PRES   REMARKS
SIOUX FALLS    CLEAR     54  51  90 NW3       30.15R
HURON          CLEAR     50  48  93 CALM      30.14S
CHAMBERLAIN    CLEAR     51  47  89 CALM      30.15S
MITCHELL       CLEAR     54  51  90 CALM      30.15S
YANKTON        CLEAR     55  54  94 NW3       30.14S
$$

ABBREVIATIONS USED IN REMARKS
   TC - TEMPERATURE IN CELSIUS
  WCI - WIND CHILL INDEX
   HX - HEAT INDEX
  VSB - VISIBILITY



USA.gov is the U.S. government's official web portal to all federal, state and local government web resources and services.